weather.gov     
National Weather Service

Regional Weather Roundup
NWS Homepage
This page is being discontinued on March 12, 2014.
The same data is available at this site. Please update your bookmarks.
Thank you, and we apologize for the inconvenience.
Please send an email to SR-SRH.Webmaster@noaa.gov with any concerns.


Current Version
Previous Version:    01  02  03  04  05  06  07  08  09  10  11  12  13  14  15  16  17  18  19  20  21  22  23  24  25  26  27  28  29  30  
   31  32  33  34  35  36  37  38  39  40  41  42  43  44  45  46  47  48  49  50  51  52  53  54  
[Printable]
329
ASUS43 KGLD 271059
RWRGLD

GOODLAND FORECAST AREA HOURLY WEATHER ROUNDUP
NATIONAL WEATHER SERVICE GOODLAND KS
500 AM MDT WED AUG 27 2014

...OFFICIAL OBSERVATIONS...

CITY           SKY/WX    TMP DP  RH WIND       PRES   REMARKS
GOODLAND KS    CLOUDY    64  63  96 E6        30.15R
HILL CITY KS   CLOUDY    69  66  90 CALM      30.11F
IMPERIAL NEB   MOCLDY    64  62  93 CALM      30.11F
MCCOOK NEB     CLOUDY    66  65  96 SE7       30.10S
AKRON CO       PTCLDY    62  58  86 S7        30.14F
BURLINGTON CO  PTCLDY    60  59  96 S6        30.15S
LIMON CO       CLOUDY    58  57  97 SE7       30.18F
$$

...UNOFFICIAL OBSERVATIONS...

CITY           SKY/WX    TMP DP  RH WIND       PRES   REMARKS
COLBY KS       MOCLDY    64  64 100 SE6       30.15R
GOVE KS          N/A     68  32  26 CALM        N/A
NORTON KS      CLEAR     68  64  88 CALM      30.10S
SHARON SPRINGS   N/A     64  62  95 S6          N/A
WAKEENEY KS      N/A     69  66  89 MISG        N/A
KIT CARSON CO    N/A     62  59  91 MISG        N/A
YUMA CO          N/A     61  58  88 CALM        N/A
$$




U.S. Dept. of Commerce
NOAA National Weather Service
1325 East West Highway
Silver Spring, MD 20910
E-mail: w-nws.webmaster@noaa.gov
Page last modified: May 16, 2007
NATIONAL WEATHER SERVICE: for Safety, for Work, for Fun - FOR LIFE